[Date Prev][Date Next][Thread Prev][Thread Next] - [Date Index][Thread Index][Author Index]
2 Line ISS Keps 7-22
- Subject: [sarex] 2 Line ISS Keps 7-22
- From: "Dave Larsen PhD" <doc@xxxxxxxxxxx>
- Date: Fri, 22 Jul 2005 07:33:12 -0700
ISS
1 25544U 98067A 05203.44045139 .00012792 00000-0 10073-3 0 9681
2 25544 051.6454 080.3562 0003072 142.8116 216.9169 15.71872444381229
----
Via the sarex mailing list at AMSAT.ORG courtesy of AMSAT-NA.
To unsubscribe, send "unsubscribe sarex" to Majordomo@amsat.org
AMSAT Home